Regional Weather Roundup
Issued by NWS

Home | Current Version | Previous Version | Graphics & Text | Print | Product List | Glossary On
Versions: 1 2 3 4 5 6 7 8 9 10 11 12 13 14 15 16 17 18 19 20 21 22 23 24 25 26 27 28 29 30 31 32 33 34 35 36 37 38 39 40 41 42 43 44 45 46 47 48 49 50
000
ASUS43 KDMX 130103
RWRIA

WEATHER ROUNDUP FOR IOWA
NATIONAL WEATHER SERVICE DES MOINES IA
700 PM CST FRI FEB 12 2016

NOTE: "FAIR" INDICATES FEW OR NO CLOUDS BELOW 12,000 FEET WITH NO
SIGNIFICANT WEATHER AND/OR OBSTRUCTIONS TO VISIBILITY.

* - THESE STATIONS ARE NOT NWS STATIONS...THUS NOT UNDER NWS
QUALITY CONTROL.  THEY ALSO DO NOT REPORT WEATHER SUCH
AS PRECIPITATION OR FOG.

IAZ001>003-012>014-020>022-031>034-043>046-130200-
   NORTHWEST IOWA

CITY           SKY/WX    TMP DP  RH WIND       PRES   REMARKS
CARROLL *      CLEAR      7   0  72 N13       30.58R WCI  -9
CHEROKEE *     CLOUDY     5  -3  67 N6        30.59R WCI  -5
DENISON *      CLEAR      9   1  72 N9        30.57R WCI  -5
LE MARS *      CLOUDY     7   0  72 N7        30.62R WCI  -5
ORANGE CITY *  CLOUDY     5  -4  66 N10G16    30.57F WCI -10
SHELDON *      CLOUDY     1  -4  78 N14       30.56F WCI -17
SIOUX CITY     CLOUDY    12   1  61 N12       30.62R WCI  -2
SPENCER        CLOUDY     2  -6  69 NW8       30.58R WCI -12
STORM LAKE *   CLEAR      5  -4  66 N15       30.56R WCI -13
$$

IAZ055>058-069>071-079>083-090>094-130200-
   SOUTHWEST IOWA

CITY           SKY/WX    TMP DP  RH WIND       PRES   REMARKS
ATLANTIC *     CLEAR     10   1  67 N10       30.59R WCI  -3
AUDUBON *      CLEAR      9   1  72 NW6       30.58R WCI  -1
CLARINDA *     CLOUDY    16   5  62 N9        30.61R WCI   4
COUNCIL BLFS * CLEAR     14   3  62 N8        30.58R WCI   3
CRESTON *      CLEAR     12   1  62 NW15      30.55R WCI  -4
HARLAN  *      PTCLDY    10   1  67 N12       30.62R WCI  -4
LAMONI         CLEAR     14  -1  51 N18       30.54R WCI  -3
RED OAK *      CLOUDY    14   5  67 N13       30.60R WCI   0
SHENANDOAH *   CLOUDY    16   5  62 N14       30.61R WCI   1
$$

IAZ047>049-059>061-072>074-084-130200-
   CENTRAL IOWA

CITY           SKY/WX    TMP DP  RH WIND       PRES   REMARKS
AMES           CLOUDY     8   0  69 NW13      30.57R WCI  -8
ANKENY *       CLOUDY    10   1  67 N16       30.58R WCI  -7
BOONE *        CLEAR      7   0  72 N17       30.54R WCI -12
CHARITON *     CLEAR     12   0  57 NW14      30.54R WCI  -3
DES MOINES     CLOUDY    11   0  61 NW10      30.57R WCI  -3
GRINNELL*      PTCLDY    10   3  72 NW15      30.52R WCI  -6
KNOXVILLE *    CLOUDY    12   1  62 NW16G22   30.53R WCI  -4
MARSHALLTOWN   CLEAR      8   0  69 NW14      30.52R WCI  -8
NEWTON *       CLEAR     10   1  67 NW13G20   30.54R WCI  -5
PELLA *        CLEAR     11   3  69 N13       30.56R WCI  -4
$$

IAZ004>006-015-016-023>025-035-036-130200-
   NORTH CENTRAL IOWA

CITY           SKY/WX    TMP DP  RH WIND       PRES   REMARKS
ALGONA *       CLEAR      5   0  78 NW14      30.55R WCI -12
CLARION *      CLEAR      5  -2  72 NW17      30.54S WCI -14
ESTHERVILLE    CLOUDY     2  -4  76 NW15      30.56R WCI -17
FORT DODGE *   CLOUDY     5  -6  61 N6        30.57R WCI  -6
MASON CITY     CLOUDY     4  -5  66 NW16      30.53R WCI -15
FOREST CITY *    N/A      5  -2  72 NW14      30.53R WCI -12
WEBSTER CITY * CLEAR      5  -2  72 NW20      30.54R WCI -15
IOWA FALLS *     N/A      7   1  78 NW17      30.53R WCI -12
$$

IAZ007>011-017>019-026>030-037>042-050>054-066-130200-
   NORTHEAST IOWA

CITY           SKY/WX    TMP DP  RH WIND       PRES   REMARKS
CEDAR RAPIDS   CLEAR     11   2  67 N14       30.48R WCI  -5
CHARLES CITY * CLEAR      5  -8  56 NW15      30.51R WCI -13
CLINTON *      CLEAR     12   0  58 NW18G24   30.44R WCI  -6
DECORAH *      CLEAR      7 -11  43 NW14      30.46R WCI -10
DUBUQUE        CLEAR      9  -4  55 NW18      30.42R WCI -10
MONTICELLO *   CLEAR      9  -2  61 NW17      30.47R WCI -10
OELWEIN *      CLEAR      5  -4  66 NW17      30.49R WCI -14
WATERLOO       CLEAR      7  -4  60 NW17      30.52R WCI -12
$$

IAZ064-065-067-068-078-130200-
   EAST CENTRAL IOWA

CITY           SKY/WX    TMP DP  RH WIND       PRES   REMARKS
DAVENPORT      CLEAR     12   0  58 NW17G28   30.45R WCI  -5
IOWA CITY      PTCLDY    13   0  56 NW13G21   30.52R WCI  -2
MT. PLEASANT * CLEAR     17   5  59 NW14G22   30.50R WCI   3
MUSCATINE *    CLEAR     16   1  53 NW15G21   30.50R WCI   1
QUAD CITIES    CLEAR     14   0  53 NW23G31   30.45R WCI  -5
$$

IAZ062-063-075>077-085>089-095>099-130200-
   SOUTHEAST IOWA

CITY           SKY/WX    TMP DP  RH WIND       PRES   REMARKS
BURLINGTON     CLEAR     15   3  59 NW17G26   30.48R WCI  -1
FAIRFIELD *    PTCLDY    12   1  62 NW20G26   30.51R WCI  -6
FORT MADISON * CLEAR     16   5  62 NW16      30.49R WCI   0
KEOKUK *       CLEAR     18   5  57 NW12G20   30.49R WCI   5
OSKALOOSA *      N/A     11   4  73 NW17      30.53R WCI  -6
OTTUMWA        CLEAR     12   3  67 NW20      30.53R WCI  -6
WASHINGTON *   CLEAR     12   3  67 NW14G21   30.51R WCI  -3
$$

ABBREVIATIONS USED IN REMARKS
   TC - TEMPERATURES IN CELSIUS
  WCI - WIND CHILL INDEX
   HX - HEAT INDEX
  VSB - VISIBILITY
$$




USA.gov is the U.S. government's official web portal to all federal, state and local government web resources and services.